Regional Weather Roundup
Issued by NWS

Home | Current Version | Previous Version | Text Only | Print | Product List | Glossary Off
Versions: 1 2 3 4 5 6 7 8 9 10 11 12 13 14 15 16 17 18 19 20 21 22 23 24 25 26 27 28 29 30 31 32 33 34 35 36 37 38 39 40 41 42 43 44 45 46 47 48 49 50

000
ASUS43 KOAX 031702
RWRNE
WEATHER ROUNDUP FOR NEBRASKA
NATIONAL WEATHER SERVICE OMAHA NE
1200 PM CDT WED JUN 03 2015

NOTES: SATELLITE DATA IS BEING USED TO AUGMENT CLOUD COVER ABOVE
       12000 FEET.
       "FAIR" INDICATES FEW OR NO CLOUDS BELOW 12,000 FEET WITH NO
       SIGNIFICANT WEATHER AND/OR OBSTRUCTIONS TO VISIBILITY.

  * THESE STATIONS DO NOT REPORT WEATHER SUCH AS RAIN...SNOW OR FOG.

NEZ001>004-019>022-054>056-031800-
NEBRASKA PANHANDLE

CITY           SKY/WX    TMP DP  RH WIND       PRES   REMARKS
SCOTTSBLUFF    SUNNY     71  52  50 VRB3      30.02F
ALLIANCE       SUNNY     69  54  58 E7        30.03R
CHADRON        SUNNY     69  55  60 NE10      30.01S
KIMBALL          N/A    N/A N/A N/A MISG        N/A
SIDNEY           N/A    N/A N/A N/A MISG      30.04S
$$

NEZ057>060-069>072-079>082-031800-
SOUTHWEST NEBRASKA

CITY           SKY/WX    TMP DP  RH WIND       PRES   REMARKS
NORTH PLATTE   PTSUNNY   73  58  59 NE5       29.98R
IMPERIAL       SUNNY     71  57  61 E6        29.98S
LEXINGTON      MOSUNNY   73  60  62 N5        29.95R
MCCOOK         MOSUNNY   76  57  51 E8        29.94R
OGALLALA       SUNNY     72  56  57 NE7       30.00S
$$

NEZ005>010-023>029-035>040-094-031800-
NORTH CENTRAL NEBRASKA

CITY           SKY/WX    TMP DP  RH WIND       PRES   REMARKS
VALENTINE      MOSUNNY   69  56  62 N13G20    29.97R
AINSWORTH      SUNNY     71  58  64 N13       29.96R
BROKEN BOW     PTSUNNY   74  62  66 NE7       29.94R
O`NEILL        MOSUNNY   74  63  67 N9        29.92R
ORD            MOSUNNY   75  61  61 N8        29.90R
$$

NEZ041-046>049-061>064-073>077-083>087-031800-
SOUTH CENTRAL NEBRASKA

CITY           SKY/WX    TMP DP  RH WIND       PRES   REMARKS
GRAND ISLAND   PTSUNNY   70  60  70 NW7       29.94R
AURORA         PTSUNNY   71  63  77 CALM      29.93R
HASTINGS       MOSUNNY   74  61  63 E3        29.92R
HEBRON         PTSUNNY   72  63  74 SE13      29.88R
HOLDREGE       MOSUNNY   74  55  52 SE5       29.92R
KEARNEY *      MOSUNNY   73  61  64 E5        29.93R
YORK           CLOUDY    70  63  78 CALM      29.92R
$$

NEZ011>018-030>034-042>045-031800-
NORTHEAST NEBRASKA

CITY           SKY/WX    TMP DP  RH WIND       PRES   REMARKS
NORFOLK        MOSUNNY   77  62  59 N10       29.89R
ALBION         MOSUNNY   74  60  60 NE5       29.91R
BLAIR          CLOUDY    67  61  81 W5        29.91R
COLUMBUS *     MOSUNNY   73  61  64 CALM      29.93R
FREMONT        PTSUNNY   73  61  68 S10       29.91R
TEKAMAH        CLOUDY    72  64  76 S6        29.89R
WAYNE          MOSUNNY   74  65  72 N12G18    29.89R
$$

NEZ050>053-065>068-078-088>093-031800-
SOUTHEAST NEBRASKA

CITY           SKY/WX    TMP DP  RH WIND       PRES   REMARKS
LINCOLN        CLOUDY    71  63  75 NW8       29.93R
OMAHA EPPLEY   CLOUDY    69  63  81 W6        29.90R
BEATRICE       CLOUDY    69  64  82 S13       29.87R
FALLS CITY     LGT RAIN  65  65 100 SE14      29.85F
NEBRASKA CITY  CLOUDY    67  65  92 S15G22    29.84R
PLATTSMOUTH    CLOUDY    68  63  84 SE10G23   29.86R
$$

NEZ044-045-051>053-067-031800-
OMAHA AREA

CITY           SKY/WX    TMP DP  RH WIND       PRES   REMARKS
OMAHA EPPLEY   CLOUDY    69  63  81 W6        29.90R
BLAIR          CLOUDY    67  61  81 W5        29.91R
FREMONT        PTSUNNY   73  61  68 S10       29.91R
MILLARD        CLOUDY    69  64  82 W6        29.90R
PLATTSMOUTH    CLOUDY    68  63  84 SE10G23   29.86R
WAHOO          CLOUDY    68  62  80 CALM      29.92R
$$


USA.gov is the U.S. government's official web portal to all federal, state and local government web resources and services.